Location: Unspecified
(0.0000°N, 0.0000°E)
Time: 07:03:25
(UTC+00:00)

AISAT - Visible Passes

Search period start: 10 June 2023 00:00
Search period end: 20 June 2023 00:00
Orbit: 612 x 626 km, 98.4° (Epoch: 09 June)

Date Brightness Start Highest point End Pass type
(mag) Time Alt. Az. Time Alt. Az. Time Alt. Az.
10 Jun ? 19:20:54 10° WNW 19:22:03 11° WNW 19:23:11 10° W visible
13 Jun ? 18:32:43 10° N 18:36:52 49° WNW 18:41:01 10° SSW visible
14 Jun ? 18:50:01 10° NNW 18:53:43 28° WNW 18:57:24 10° SW visible
15 Jun ? 05:23:53 10° ESE 05:26:23 15° ENE 05:28:52 10° NE visible
15 Jun ? 19:07:46 10° NW 19:10:32 17° WNW 19:13:17 10° WSW visible
18 Jun ? 18:20:56 10° N 18:25:12 79° WNW 18:29:29 10° SSW visible
19 Jun ? 18:37:56 10° N 18:42:00 43° WNW 18:46:04 10° SSW visible
